Location: Unnamed
(42.1164°N, 2.7652°E)
Time: 19:51:57
(UTC+02:00)

ISS - Pass Details

Date: 15 May 2021
Orbit: 417 x 422 km, 51.6° (Epoch: 14 June)

Event Time Altitude Azimuth Distance (km) Brightness Sun altitude
Rises 02:00:47 0° 297° (WNW) 2,369 0.3 -28.9°
Reaches altitude 10° 02:03:28 10° 319° (NW) 1,506 -0.4 -28.9°
Maximum altitude 02:05:40 16° 0° (N) 1,190 -0.7 -28.8°
Drops below altitude 10° 02:07:53 10° 41° (NE) 1,508 -0.3 -28.8°
Sets 02:10:35 0° 64° (ENE) 2,374 0.5 -28.7°
